Year,Month,Day,Hour,Minute,Value (Times are PST for windgust in km/hr)
2017,10,16,00,45,6.40
2017,10,16,00,46,6.40
2017,10,16,00,47,4.80
2017,10,16,00,48,3.20
2017,10,16,00,49,4.80
2017,10,16,00,50,3.20
2017,10,16,00,51,4.80
2017,10,16,00,52,3.20
2017,10,16,00,53,4.80
2017,10,16,00,54,3.20
2017,10,16,00,55,3.20
2017,10,16,00,56,3.20
2017,10,16,00,57,3.20
2017,10,16,00,58,4.80
2017,10,16,00,59,4.80
2017,10,16,01,00,4.80
2017,10,16,01,01,1.60
2017,10,16,01,02,3.20
2017,10,16,01,03,4.80
2017,10,16,01,04,3.20
2017,10,16,01,05,3.20
2017,10,16,01,06,4.80
2017,10,16,01,08,1.60
2017,10,16,01,09,3.20
2017,10,16,01,10,3.20
2017,10,16,01,11,1.60
2017,10,16,01,12,3.20
2017,10,16,01,13,3.20
2017,10,16,01,16,3.20
2017,10,16,01,17,1.60
2017,10,16,01,21,3.20
2017,10,16,01,22,3.20
2017,10,16,01,23,1.60
2017,10,16,01,26,3.20
2017,10,16,01,27,3.20
2017,10,16,01,28,1.60
2017,10,16,02,13,1.60
2017,10,16,02,17,3.20
2017,10,16,02,18,3.20
2017,10,16,02,19,4.80
2017,10,16,02,20,3.20
2017,10,16,02,21,1.60
2017,10,16,02,22,3.20
2017,10,16,02,23,6.40
2017,10,16,02,24,4.80
2017,10,16,02,25,6.40
2017,10,16,02,26,6.40
2017,10,16,02,27,4.80
2017,10,16,02,28,4.80
2017,10,16,02,29,4.80
2017,10,16,02,30,4.80
2017,10,16,02,31,4.80
2017,10,16,02,32,4.80
2017,10,16,02,33,4.80
2017,10,16,02,34,6.40
2017,10,16,02,35,6.40
2017,10,16,02,36,8.10
2017,10,16,02,37,6.40
2017,10,16,02,38,4.80
2017,10,16,02,39,6.40
2017,10,16,02,40,8.10
2017,10,16,02,41,6.40
2017,10,16,02,42,6.40
2017,10,16,02,43,9.60
2017,10,16,02,44,8.10
2017,10,16,02,45,6.40
2017,10,16,02,46,8.10
2017,10,16,02,47,6.40
2017,10,16,02,48,8.10
2017,10,16,02,49,8.10
2017,10,16,02,50,9.60
2017,10,16,02,51,6.40
2017,10,16,02,52,4.80
2017,10,16,02,53,6.40
2017,10,16,02,54,4.80
2017,10,16,02,55,6.40
2017,10,16,02,56,8.10
2017,10,16,02,57,8.10
2017,10,16,02,58,3.20
2017,10,16,02,59,4.80
2017,10,16,03,00,9.60
2017,10,16,03,01,9.60
2017,10,16,03,02,4.80
2017,10,16,03,03,6.40
2017,10,16,03,04,8.10
2017,10,16,03,05,6.40
2017,10,16,03,06,8.10
2017,10,16,03,07,6.40
2017,10,16,03,08,6.40
2017,10,16,03,09,4.80
2017,10,16,03,10,8.10
2017,10,16,03,11,6.40
2017,10,16,03,12,4.80
2017,10,16,03,13,6.40
2017,10,16,03,14,4.80
2017,10,16,03,15,4.80
2017,10,16,03,16,3.20
2017,10,16,03,17,4.80
2017,10,16,03,18,6.40
2017,10,16,03,19,4.80
2017,10,16,03,20,4.80
2017,10,16,03,21,6.40
2017,10,16,03,22,4.80
2017,10,16,03,23,4.80
2017,10,16,03,24,3.20
2017,10,16,03,25,4.80
2017,10,16,03,26,4.80
2017,10,16,03,27,3.20
2017,10,16,03,28,6.40
2017,10,16,03,29,4.80
2017,10,16,03,30,4.80
2017,10,16,03,31,4.80
2017,10,16,03,32,6.40
2017,10,16,03,33,6.40
2017,10,16,03,34,4.80
2017,10,16,03,35,6.40
2017,10,16,03,36,6.40
2017,10,16,03,37,4.80
2017,10,16,03,38,6.40
2017,10,16,03,39,4.80
2017,10,16,03,40,3.20
2017,10,16,03,41,4.80
2017,10,16,03,42,3.20
2017,10,16,03,43,3.20
2017,10,16,03,44,4.80
2017,10,16,03,45,4.80
2017,10,16,03,46,3.20
2017,10,16,03,47,3.20
2017,10,16,03,48,1.60
2017,10,16,03,49,4.80
2017,10,16,03,50,4.80
2017,10,16,03,51,3.20
2017,10,16,03,52,3.20
2017,10,16,03,53,1.60
2017,10,16,03,54,3.20
2017,10,16,03,55,1.60
2017,10,16,03,56,3.20
2017,10,16,03,57,3.20
2017,10,16,03,58,4.80
2017,10,16,03,59,3.20
2017,10,16,04,00,3.20
2017,10,16,04,01,4.80
2017,10,16,04,02,4.80
2017,10,16,04,03,4.80
2017,10,16,04,04,3.20
2017,10,16,04,05,8.10
2017,10,16,04,06,6.40
2017,10,16,04,07,8.10
2017,10,16,04,08,6.40
2017,10,16,04,09,6.40
2017,10,16,04,10,8.10
2017,10,16,04,11,8.10
2017,10,16,04,12,8.10
2017,10,16,04,13,4.80
2017,10,16,04,14,4.80
2017,10,16,04,15,3.20
2017,10,16,04,16,3.20
2017,10,16,04,17,1.60
2017,10,16,04,20,1.60
2017,10,16,04,23,3.20
2017,10,16,04,25,1.60
2017,10,16,04,26,1.60
2017,10,16,04,27,3.20
2017,10,16,04,28,4.80
2017,10,16,04,29,3.20
2017,10,16,04,30,1.60
2017,10,16,04,31,3.20
2017,10,16,04,32,3.20
2017,10,16,04,33,3.20
2017,10,16,04,34,1.60
2017,10,16,04,35,3.20
2017,10,16,04,36,3.20
2017,10,16,04,37,1.60
2017,10,16,04,38,4.80
2017,10,16,04,39,4.80
2017,10,16,04,40,4.80
2017,10,16,04,41,4.80
2017,10,16,04,42,3.20
2017,10,16,04,43,4.80
2017,10,16,04,44,8.10
2017,10,16,04,45,4.80
2017,10,16,04,46,6.40
2017,10,16,04,47,8.10
2017,10,16,04,48,6.40
2017,10,16,04,49,6.40
2017,10,16,04,50,9.60
2017,10,16,04,51,6.40
2017,10,16,04,52,9.60
2017,10,16,04,53,4.80
2017,10,16,04,54,9.60
2017,10,16,04,55,11.30
2017,10,16,04,56,8.10
2017,10,16,04,57,8.10
2017,10,16,04,58,9.60
2017,10,16,04,59,6.40
2017,10,16,05,00,4.80
2017,10,16,05,01,4.80
2017,10,16,05,02,6.40
2017,10,16,05,03,6.40
2017,10,16,05,04,6.40
2017,10,16,05,05,6.40
2017,10,16,05,06,8.10
2017,10,16,05,07,6.40
2017,10,16,05,08,4.80
2017,10,16,05,09,6.40
2017,10,16,05,10,4.80
2017,10,16,05,11,6.40
2017,10,16,05,12,4.80
2017,10,16,05,13,4.80
2017,10,16,05,14,3.20
2017,10,16,05,15,4.80
2017,10,16,05,16,6.40
2017,10,16,05,17,4.80
2017,10,16,05,18,3.20
2017,10,16,05,19,4.80
2017,10,16,05,20,3.20
2017,10,16,05,21,4.80
2017,10,16,05,22,6.40
2017,10,16,05,23,8.10
2017,10,16,05,24,8.10
2017,10,16,05,25,9.60
2017,10,16,05,26,6.40
2017,10,16,05,27,6.40
2017,10,16,05,28,11.30
2017,10,16,05,29,8.10
2017,10,16,05,30,6.40
2017,10,16,05,31,11.30
2017,10,16,05,32,8.10
2017,10,16,05,33,6.40
2017,10,16,05,34,8.10
2017,10,16,05,35,6.40
2017,10,16,05,36,6.40
2017,10,16,05,37,4.80
2017,10,16,05,38,8.10
2017,10,16,05,39,4.80
2017,10,16,05,40,6.40
2017,10,16,05,41,6.40
2017,10,16,05,42,4.80
2017,10,16,05,43,6.40
2017,10,16,05,44,6.40
2017,10,16,05,45,6.40
2017,10,16,05,46,4.80
2017,10,16,05,47,4.80
2017,10,16,05,48,6.40
2017,10,16,05,49,4.80
2017,10,16,05,50,3.20
2017,10,16,05,53,4.80
2017,10,16,05,54,4.80
2017,10,16,05,55,3.20
2017,10,16,05,56,1.60
2017,10,16,05,57,4.80
2017,10,16,05,58,3.20
2017,10,16,05,59,4.80
2017,10,16,06,00,3.20
2017,10,16,06,01,3.20
2017,10,16,06,03,4.80
2017,10,16,06,04,1.60
2017,10,16,06,05,3.20
2017,10,16,06,06,3.20
2017,10,16,06,08,3.20
2017,10,16,06,09,1.60
2017,10,16,06,10,4.80
2017,10,16,06,11,1.60
2017,10,16,06,12,8.10
2017,10,16,06,13,6.40
2017,10,16,06,14,4.80
2017,10,16,06,15,1.60
2017,10,16,06,17,6.40
2017,10,16,06,18,8.10
2017,10,16,06,19,4.80
2017,10,16,06,20,6.40
2017,10,16,06,21,6.40
2017,10,16,06,22,6.40
2017,10,16,06,23,8.10
2017,10,16,06,24,6.40
2017,10,16,06,25,4.80
2017,10,16,06,26,4.80
2017,10,16,06,28,3.20
2017,10,16,06,30,6.40
2017,10,16,06,31,4.80
2017,10,16,06,32,1.60
2017,10,16,06,33,4.80
2017,10,16,06,34,4.80
2017,10,16,06,35,8.10
2017,10,16,06,36,4.80
2017,10,16,06,37,4.80
2017,10,16,06,38,3.20
2017,10,16,06,39,4.80
2017,10,16,06,40,3.20
2017,10,16,06,42,3.20
2017,10,16,06,43,9.60
2017,10,16,06,44,6.40
2017,10,16,06,45,4.80
2017,10,16,06,46,3.20
2017,10,16,06,47,6.40
2017,10,16,06,48,4.80
2017,10,16,06,49,3.20
2017,10,16,06,50,3.20
2017,10,16,06,51,4.80
2017,10,16,06,52,3.20
2017,10,16,06,53,1.60
2017,10,16,06,54,3.20
2017,10,16,06,55,3.20
2017,10,16,06,57,4.80
2017,10,16,06,58,1.60
2017,10,16,07,00,4.80
2017,10,16,07,01,3.20
2017,10,16,07,02,3.20
2017,10,16,07,03,4.80
2017,10,16,07,04,4.80
2017,10,16,07,05,4.80
2017,10,16,07,06,3.20
2017,10,16,07,07,6.40
2017,10,16,07,08,4.80
2017,10,16,07,09,4.80
2017,10,16,07,10,6.40
2017,10,16,07,11,3.20
2017,10,16,07,13,3.20
2017,10,16,07,14,4.80
2017,10,16,07,15,3.20
2017,10,16,07,16,6.40
2017,10,16,07,17,8.10
2017,10,16,07,18,8.10
2017,10,16,07,19,4.80
2017,10,16,07,20,4.80
2017,10,16,07,21,6.40
2017,10,16,07,22,6.40
2017,10,16,07,23,4.80
2017,10,16,07,24,6.40
2017,10,16,07,25,6.40
2017,10,16,07,26,4.80
2017,10,16,07,27,4.80
2017,10,16,07,28,4.80
2017,10,16,07,29,4.80
2017,10,16,07,30,4.80
2017,10,16,07,31,4.80
2017,10,16,07,32,3.20
2017,10,16,07,34,4.80
2017,10,16,07,35,6.40
2017,10,16,07,36,1.60
2017,10,16,07,37,3.20
2017,10,16,07,38,4.80
2017,10,16,07,39,4.80
2017,10,16,07,40,6.40
2017,10,16,07,41,4.80
2017,10,16,07,42,4.80
2017,10,16,07,43,8.10
2017,10,16,07,44,6.40
2017,10,16,07,45,4.80
2017,10,16,07,46,4.80
2017,10,16,07,51,3.20
2017,10,16,07,52,4.80
2017,10,16,07,53,3.20
2017,10,16,07,54,4.80
2017,10,16,07,55,6.40
2017,10,16,07,56,4.80
2017,10,16,07,57,3.20
2017,10,16,07,58,4.80
2017,10,16,07,59,3.20
2017,10,16,08,01,3.20
2017,10,16,08,02,4.80
2017,10,16,08,03,6.40
2017,10,16,08,04,6.40
2017,10,16,08,05,4.80
2017,10,16,08,06,3.20
2017,10,16,08,07,4.80
2017,10,16,08,08,3.20
2017,10,16,08,09,3.20
2017,10,16,08,16,3.20
2017,10,16,08,17,1.60
2017,10,16,08,18,3.20
2017,10,16,08,22,3.20
2017,10,16,08,23,4.80
2017,10,16,08,24,4.80
2017,10,16,08,25,4.80
2017,10,16,08,26,4.80
2017,10,16,08,27,3.20
2017,10,16,08,28,4.80
2017,10,16,08,29,3.20
2017,10,16,08,30,3.20
2017,10,16,08,32,3.20
2017,10,16,08,33,3.20
2017,10,16,08,34,4.80
2017,10,16,08,35,4.80
2017,10,16,08,36,6.40
2017,10,16,08,37,3.20
2017,10,16,08,38,3.20
2017,10,16,08,39,3.20
2017,10,16,08,40,3.20
2017,10,16,08,41,4.80
2017,10,16,08,42,3.20
2017,10,16,08,43,3.20
2017,10,16,08,44,1.60
2017,10,16,08,45,4.80
2017,10,16,08,46,8.10
2017,10,16,08,47,3.20
2017,10,16,08,48,4.80
2017,10,16,08,49,4.80
2017,10,16,08,50,3.20
2017,10,16,08,51,4.80
2017,10,16,08,52,6.40
2017,10,16,08,53,3.20
2017,10,16,08,54,3.20
2017,10,16,08,55,8.10
2017,10,16,08,56,6.40
2017,10,16,08,57,4.80
2017,10,16,08,58,4.80
2017,10,16,08,59,6.40
2017,10,16,09,00,4.80
2017,10,16,09,01,6.40
2017,10,16,09,02,4.80
2017,10,16,09,03,1.60
2017,10,16,09,04,3.20
2017,10,16,09,06,4.80
2017,10,16,09,07,4.80
2017,10,16,09,08,3.20
2017,10,16,09,09,4.80
2017,10,16,09,10,4.80
2017,10,16,09,11,4.80
2017,10,16,09,12,4.80
2017,10,16,09,13,6.40
2017,10,16,09,14,6.40
2017,10,16,09,15,6.40
2017,10,16,09,16,11.30
2017,10,16,09,17,8.10
2017,10,16,09,18,6.40
2017,10,16,09,19,3.20
2017,10,16,09,21,8.10
2017,10,16,09,22,8.10
2017,10,16,09,23,8.10
2017,10,16,09,24,6.40
2017,10,16,09,25,3.20
2017,10,16,09,26,6.40
2017,10,16,09,27,3.20
2017,10,16,09,28,4.80
2017,10,16,09,29,6.40
2017,10,16,09,30,3.20
2017,10,16,09,31,8.10
2017,10,16,09,32,3.20
2017,10,16,09,33,3.20
2017,10,16,09,34,3.20
2017,10,16,09,35,1.60
2017,10,16,09,36,1.60
2017,10,16,09,37,1.60
2017,10,16,09,38,3.20
2017,10,16,09,39,3.20
2017,10,16,09,40,9.60
2017,10,16,09,41,3.20
2017,10,16,09,42,4.80
2017,10,16,09,43,8.10
2017,10,16,09,44,6.40
2017,10,16,09,45,3.20
2017,10,16,09,46,1.60
2017,10,16,09,47,3.20
2017,10,16,09,48,8.10
2017,10,16,09,49,3.20
2017,10,16,09,50,8.10
2017,10,16,09,51,1.60
2017,10,16,09,53,4.80
2017,10,16,09,54,3.20
2017,10,16,09,55,3.20
2017,10,16,09,56,6.40
2017,10,16,09,57,6.40
2017,10,16,09,58,3.20
2017,10,16,09,59,3.20
2017,10,16,10,00,6.40
2017,10,16,10,01,8.10
2017,10,16,10,02,6.40
2017,10,16,10,03,8.10
2017,10,16,10,04,8.10
2017,10,16,10,05,4.80
2017,10,16,10,06,6.40
2017,10,16,10,07,4.80
2017,10,16,10,08,8.10
2017,10,16,10,09,6.40
2017,10,16,10,10,4.80
2017,10,16,10,11,6.40
2017,10,16,10,12,6.40
2017,10,16,10,13,4.80
2017,10,16,10,14,6.40
2017,10,16,10,15,8.10
2017,10,16,10,16,6.40
2017,10,16,10,17,8.10
2017,10,16,10,18,9.60
2017,10,16,10,19,8.10
2017,10,16,10,20,6.40
2017,10,16,10,21,4.80
2017,10,16,10,22,6.40
2017,10,16,10,23,6.40
2017,10,16,10,24,6.40
2017,10,16,10,25,6.40
2017,10,16,10,26,4.80
2017,10,16,10,27,4.80
2017,10,16,10,28,6.40
2017,10,16,10,29,4.80
2017,10,16,10,30,4.80
2017,10,16,10,31,6.40
2017,10,16,10,32,6.40
2017,10,16,10,33,6.40
2017,10,16,10,34,8.10
2017,10,16,10,35,8.10
2017,10,16,10,36,4.80
2017,10,16,10,37,1.60
2017,10,16,10,38,8.10
2017,10,16,10,39,6.40
2017,10,16,10,40,3.20
2017,10,16,10,41,4.80
2017,10,16,10,42,4.80
2017,10,16,10,43,8.10
2017,10,16,10,44,8.10
2017,10,16,10,45,9.60
2017,10,16,10,46,4.80
2017,10,16,10,47,8.10
2017,10,16,10,48,11.30
2017,10,16,10,49,8.10
2017,10,16,10,50,8.10
2017,10,16,10,51,9.60
2017,10,16,10,52,8.10
2017,10,16,10,53,9.60
2017,10,16,10,54,9.60
2017,10,16,10,55,6.40
2017,10,16,10,56,6.40
2017,10,16,10,57,4.80
2017,10,16,10,58,8.10
2017,10,16,10,59,8.10
2017,10,16,11,00,8.10
2017,10,16,11,01,17.70
2017,10,16,11,02,17.70
2017,10,16,11,03,8.10
2017,10,16,11,04,8.10
2017,10,16,11,05,8.10
2017,10,16,11,06,4.80
2017,10,16,11,07,6.40
2017,10,16,11,08,11.30
2017,10,16,11,09,9.60
2017,10,16,11,10,9.60
2017,10,16,11,11,9.60
2017,10,16,11,12,9.60
2017,10,16,11,13,9.60
2017,10,16,11,14,6.40
2017,10,16,11,15,11.30
2017,10,16,11,16,11.30
2017,10,16,11,17,6.40
2017,10,16,11,18,9.60
2017,10,16,11,19,14.50
2017,10,16,11,20,11.30
2017,10,16,11,21,9.60
2017,10,16,11,22,9.60
2017,10,16,11,23,6.40
2017,10,16,11,24,11.30
2017,10,16,11,25,4.80
2017,10,16,11,26,11.30
2017,10,16,11,27,11.30
2017,10,16,11,28,11.30
2017,10,16,11,29,8.10
2017,10,16,11,30,8.10
2017,10,16,11,31,6.40
2017,10,16,11,32,12.90
2017,10,16,11,33,9.60
2017,10,16,11,34,11.30
2017,10,16,11,35,8.10
2017,10,16,11,36,11.30
2017,10,16,11,37,6.40
2017,10,16,11,38,11.30
2017,10,16,11,39,8.10
2017,10,16,11,40,4.80
2017,10,16,11,41,6.40
2017,10,16,11,42,8.10
2017,10,16,11,43,9.60
2017,10,16,11,44,8.10
2017,10,16,11,45,9.60
2017,10,16,11,46,4.80
2017,10,16,11,47,8.10
2017,10,16,11,48,9.60
2017,10,16,11,49,4.80
2017,10,16,11,50,6.40
2017,10,16,11,51,8.10
2017,10,16,11,52,11.30
2017,10,16,11,53,9.60
2017,10,16,11,54,8.10
2017,10,16,11,55,6.40
2017,10,16,11,56,9.60
2017,10,16,11,57,4.80
2017,10,16,11,58,6.40
2017,10,16,11,59,6.40
2017,10,16,12,00,8.10
2017,10,16,12,01,14.50
2017,10,16,12,02,12.90
2017,10,16,12,03,8.10
2017,10,16,12,04,9.60
2017,10,16,12,05,9.60
2017,10,16,12,06,8.10
2017,10,16,12,07,8.10
2017,10,16,12,08,11.30
2017,10,16,12,09,8.10
2017,10,16,12,10,6.40
2017,10,16,12,11,6.40
2017,10,16,12,12,9.60
2017,10,16,12,13,11.30
2017,10,16,12,14,11.30
2017,10,16,12,15,8.10
2017,10,16,12,16,9.60
2017,10,16,12,17,6.40
2017,10,16,12,18,8.10
2017,10,16,12,19,9.60
2017,10,16,12,20,6.40
2017,10,16,12,21,8.10
2017,10,16,12,22,6.40
2017,10,16,12,23,4.80
2017,10,16,12,24,8.10
2017,10,16,12,25,6.40
2017,10,16,12,26,4.80
2017,10,16,12,27,6.40
2017,10,16,12,28,4.80
2017,10,16,12,29,8.10
2017,10,16,12,30,9.60
2017,10,16,12,31,6.40
2017,10,16,12,32,9.60
2017,10,16,12,33,6.40
2017,10,16,12,34,16.10
2017,10,16,12,35,14.50
2017,10,16,12,36,9.60
2017,10,16,12,37,11.30
2017,10,16,12,38,6.40
2017,10,16,12,39,8.10
2017,10,16,12,40,8.10
2017,10,16,12,41,6.40
2017,10,16,12,42,4.80
2017,10,16,12,43,9.60
2017,10,16,12,44,8.10
2017,10,16,12,45,8.10
2017,10,16,12,46,6.40
2017,10,16,12,47,12.90
2017,10,16,12,48,8.10
2017,10,16,12,49,8.10
2017,10,16,12,50,6.40
2017,10,16,12,51,6.40
2017,10,16,12,52,9.60
2017,10,16,12,53,6.40
2017,10,16,12,54,6.40
2017,10,16,12,55,9.60
2017,10,16,12,56,6.40
2017,10,16,12,57,6.40
2017,10,16,12,58,8.10
2017,10,16,12,59,8.10
2017,10,16,13,00,11.30
2017,10,16,13,01,8.10
2017,10,16,13,02,9.60
2017,10,16,13,03,9.60
2017,10,16,13,04,8.10
2017,10,16,13,05,8.10
2017,10,16,13,06,12.90
2017,10,16,13,07,9.60
2017,10,16,13,08,8.10
2017,10,16,13,09,8.10
2017,10,16,13,10,9.60
2017,10,16,13,11,9.60
2017,10,16,13,12,8.10
2017,10,16,13,13,9.60
2017,10,16,13,14,6.40
2017,10,16,13,15,8.10
2017,10,16,13,16,8.10
2017,10,16,13,17,9.60
2017,10,16,13,18,9.60
2017,10,16,13,19,11.30
2017,10,16,13,20,11.30
2017,10,16,13,21,9.60
2017,10,16,13,22,9.60
2017,10,16,13,23,8.10
2017,10,16,13,24,4.80
2017,10,16,13,25,6.40
2017,10,16,13,26,6.40
2017,10,16,13,27,6.40
2017,10,16,13,28,6.40
2017,10,16,13,29,8.10
2017,10,16,13,30,8.10
2017,10,16,13,31,8.10
2017,10,16,13,32,11.30
2017,10,16,13,33,11.30
2017,10,16,13,34,9.60
2017,10,16,13,35,9.60
2017,10,16,13,36,6.40
2017,10,16,13,37,6.40
2017,10,16,13,38,8.10
2017,10,16,13,39,4.80
2017,10,16,13,40,6.40
2017,10,16,13,41,8.10
2017,10,16,13,42,6.40
2017,10,16,13,43,6.40
2017,10,16,13,44,4.80
2017,10,16,13,45,6.40
2017,10,16,13,46,8.10
2017,10,16,13,47,8.10
2017,10,16,13,48,4.80
2017,10,16,13,49,4.80
2017,10,16,13,50,6.40
2017,10,16,13,51,6.40
2017,10,16,13,52,6.40
2017,10,16,13,53,6.40
2017,10,16,13,54,4.80
2017,10,16,13,55,6.40
2017,10,16,13,56,6.40
2017,10,16,13,57,8.10
2017,10,16,13,58,6.40
2017,10,16,13,59,6.40
2017,10,16,14,00,6.40
2017,10,16,14,01,3.20
2017,10,16,14,02,6.40
2017,10,16,14,03,4.80
2017,10,16,14,04,4.80
2017,10,16,14,05,6.40
2017,10,16,14,06,8.10
2017,10,16,14,07,6.40
2017,10,16,14,08,6.40
2017,10,16,14,09,8.10
2017,10,16,14,10,4.80
2017,10,16,14,11,6.40
2017,10,16,14,12,8.10
2017,10,16,14,13,4.80
2017,10,16,14,14,6.40
2017,10,16,14,15,6.40
2017,10,16,14,16,4.80
2017,10,16,14,17,6.40
2017,10,16,14,18,6.40
2017,10,16,14,19,8.10
2017,10,16,14,20,8.10
2017,10,16,14,21,9.60
2017,10,16,14,22,11.30
2017,10,16,14,23,6.40
2017,10,16,14,24,8.10
2017,10,16,14,25,6.40
2017,10,16,14,26,6.40
2017,10,16,14,27,4.80
2017,10,16,14,28,8.10
2017,10,16,14,29,8.10
2017,10,16,14,30,6.40
2017,10,16,14,31,6.40
2017,10,16,14,32,4.80
2017,10,16,14,33,4.80
2017,10,16,14,34,6.40
2017,10,16,14,35,6.40
2017,10,16,14,36,4.80
2017,10,16,14,37,9.60
2017,10,16,14,38,8.10
2017,10,16,14,39,6.40
2017,10,16,14,40,9.60
2017,10,16,14,41,6.40
2017,10,16,14,42,6.40
2017,10,16,14,43,4.80
2017,10,16,14,44,6.40
2017,10,16,14,45,6.40
2017,10,16,14,46,6.40
2017,10,16,14,47,4.80
2017,10,16,14,48,8.10
2017,10,16,14,49,6.40
2017,10,16,14,50,4.80
2017,10,16,14,51,6.40
2017,10,16,14,52,4.80
2017,10,16,14,53,6.40
2017,10,16,14,54,6.40
2017,10,16,14,55,6.40
2017,10,16,14,56,8.10
2017,10,16,14,57,8.10
2017,10,16,14,58,4.80
2017,10,16,14,59,6.40
2017,10,16,15,00,6.40
2017,10,16,15,01,6.40
2017,10,16,15,02,9.60
2017,10,16,15,03,8.10
2017,10,16,15,04,8.10
2017,10,16,15,05,9.60
2017,10,16,15,06,14.50
2017,10,16,15,07,8.10
2017,10,16,15,08,8.10
2017,10,16,15,09,6.40
2017,10,16,15,10,6.40
2017,10,16,15,11,9.60
2017,10,16,15,12,9.60
2017,10,16,15,13,6.40
2017,10,16,15,14,6.40
2017,10,16,15,15,3.20
2017,10,16,15,16,6.40
2017,10,16,15,17,8.10
2017,10,16,15,18,4.80
2017,10,16,15,19,4.80
2017,10,16,15,20,8.10
2017,10,16,15,21,6.40
2017,10,16,15,22,4.80
2017,10,16,15,23,1.60
2017,10,16,15,24,6.40
2017,10,16,15,25,6.40
2017,10,16,15,26,3.20
2017,10,16,15,27,4.80
2017,10,16,15,28,3.20
2017,10,16,15,29,3.20
2017,10,16,15,30,3.20
2017,10,16,15,31,4.80
2017,10,16,15,32,4.80
2017,10,16,15,33,4.80
2017,10,16,15,34,4.80
2017,10,16,15,35,4.80
2017,10,16,15,36,4.80
2017,10,16,15,37,6.40
2017,10,16,15,38,6.40
2017,10,16,15,39,4.80
2017,10,16,15,40,4.80
2017,10,16,15,41,4.80
2017,10,16,15,42,4.80
2017,10,16,15,43,4.80
2017,10,16,15,44,3.20
2017,10,16,15,45,4.80
2017,10,16,15,46,1.60
2017,10,16,15,47,4.80
2017,10,16,15,48,6.40
2017,10,16,15,49,6.40
2017,10,16,15,50,4.80
2017,10,16,15,51,4.80
2017,10,16,15,52,8.10
2017,10,16,15,53,8.10
2017,10,16,15,54,9.60
2017,10,16,15,55,8.10
2017,10,16,15,56,6.40
2017,10,16,15,57,8.10
2017,10,16,15,58,4.80
2017,10,16,15,59,9.60
2017,10,16,16,00,6.40
2017,10,16,16,01,4.80
2017,10,16,16,02,4.80
2017,10,16,16,03,4.80
2017,10,16,16,04,4.80
2017,10,16,16,05,9.60
2017,10,16,16,06,9.60
2017,10,16,16,07,6.40
2017,10,16,16,08,6.40
2017,10,16,16,09,8.10
2017,10,16,16,10,4.80
2017,10,16,16,11,6.40
2017,10,16,16,12,3.20
2017,10,16,16,13,3.20
2017,10,16,16,14,3.20
2017,10,16,16,15,4.80
2017,10,16,16,16,4.80
2017,10,16,16,17,4.80
2017,10,16,16,18,1.60
2017,10,16,16,19,4.80
2017,10,16,16,20,4.80
2017,10,16,16,21,4.80
2017,10,16,16,22,4.80
2017,10,16,16,23,4.80
2017,10,16,16,24,6.40
2017,10,16,16,25,4.80
2017,10,16,16,26,4.80
2017,10,16,16,27,8.10
2017,10,16,16,28,6.40
2017,10,16,16,29,3.20
2017,10,16,16,30,4.80
2017,10,16,16,31,6.40
2017,10,16,16,32,6.40
2017,10,16,16,33,8.10
2017,10,16,16,34,8.10
2017,10,16,16,35,4.80
2017,10,16,16,36,3.20
2017,10,16,16,37,4.80
2017,10,16,16,38,8.10
2017,10,16,16,39,6.40
2017,10,16,16,40,4.80
2017,10,16,16,41,6.40
2017,10,16,16,42,6.40
2017,10,16,16,43,3.20
2017,10,16,16,44,3.20
2017,10,16,16,45,4.80
2017,10,16,16,46,3.20
2017,10,16,16,47,4.80
2017,10,16,16,48,4.80
2017,10,16,16,49,4.80
2017,10,16,16,50,3.20
2017,10,16,16,52,1.60
2017,10,16,16,53,4.80
2017,10,16,16,54,4.80
2017,10,16,16,55,4.80
2017,10,16,16,56,4.80
2017,10,16,16,57,3.20
2017,10,16,16,58,4.80
2017,10,16,16,59,8.10
2017,10,16,17,00,4.80
2017,10,16,17,01,1.60
2017,10,16,17,02,4.80
2017,10,16,17,03,4.80
2017,10,16,17,04,6.40
2017,10,16,17,05,4.80
2017,10,16,17,06,3.20
2017,10,16,17,08,3.20
2017,10,16,17,10,3.20
2017,10,16,17,11,3.20
2017,10,16,17,12,3.20
2017,10,16,17,13,3.20
2017,10,16,17,14,4.80
2017,10,16,17,15,1.60
2017,10,16,17,16,1.60
2017,10,16,17,17,3.20
2017,10,16,17,18,3.20
2017,10,16,17,20,3.20
2017,10,16,17,21,3.20
2017,10,16,17,22,1.60
2017,10,16,17,23,1.60
2017,10,16,17,24,4.80
2017,10,16,17,25,3.20
2017,10,16,17,27,3.20
2017,10,16,17,28,3.20
2017,10,16,17,29,4.80
2017,10,16,17,30,3.20
2017,10,16,17,31,1.60
2017,10,16,17,32,3.20
2017,10,16,17,34,3.20
2017,10,16,17,35,8.10
2017,10,16,17,36,8.10
2017,10,16,17,37,3.20
2017,10,16,17,38,8.10
2017,10,16,17,39,8.10
2017,10,16,17,40,4.80
2017,10,16,17,41,4.80
2017,10,16,17,42,6.40
2017,10,16,17,43,6.40
2017,10,16,17,44,9.60
2017,10,16,17,45,3.20
2017,10,16,17,46,3.20
2017,10,16,17,47,4.80
2017,10,16,17,48,4.80
2017,10,16,17,49,6.40
2017,10,16,17,50,4.80
2017,10,16,17,51,4.80
2017,10,16,17,52,4.80
2017,10,16,17,53,6.40
2017,10,16,17,54,6.40
2017,10,16,17,55,4.80
2017,10,16,17,56,8.10
2017,10,16,17,57,9.60
2017,10,16,17,58,3.20
2017,10,16,17,59,3.20
2017,10,16,18,00,4.80
2017,10,16,18,01,3.20
2017,10,16,18,02,3.20
2017,10,16,18,03,1.60
2017,10,16,18,04,4.80
2017,10,16,18,05,3.20
2017,10,16,18,06,4.80
2017,10,16,18,08,1.60
2017,10,16,18,09,3.20
2017,10,16,18,10,4.80
2017,10,16,18,11,1.60
2017,10,16,18,14,3.20
2017,10,16,18,15,3.20
2017,10,16,18,16,3.20
2017,10,16,18,17,1.60
2017,10,16,18,18,4.80
2017,10,16,18,19,3.20
2017,10,16,18,22,3.20
2017,10,16,18,23,3.20
2017,10,16,18,24,3.20
2017,10,16,18,30,3.20
2017,10,16,18,31,3.20
2017,10,16,18,32,3.20
2017,10,16,18,33,3.20
2017,10,16,18,34,4.80
2017,10,16,18,35,4.80
2017,10,16,18,47,3.20
2017,10,16,18,48,1.60
2017,10,16,18,49,3.20
2017,10,16,18,50,1.60
2017,10,16,19,00,3.20
2017,10,16,19,01,3.20
2017,10,16,19,03,3.20
2017,10,16,19,04,4.80
2017,10,16,19,05,3.20
2017,10,16,19,17,3.20
2017,10,16,19,18,3.20
2017,10,16,19,19,1.60
2017,10,16,19,20,4.80
2017,10,16,19,21,4.80
2017,10,16,19,22,1.60
2017,10,16,19,29,3.20
2017,10,16,19,30,1.60
2017,10,16,19,32,1.60
2017,10,16,19,33,3.20
2017,10,16,19,34,1.60
2017,10,16,19,37,4.80
2017,10,16,19,38,4.80
2017,10,16,19,39,4.80
2017,10,16,19,40,4.80
2017,10,16,19,41,6.40
2017,10,16,19,42,3.20
2017,10,16,19,45,3.20
2017,10,16,19,46,1.60
2017,10,16,19,47,1.60
2017,10,16,19,51,4.80
2017,10,16,19,56,3.20
2017,10,16,19,57,3.20
2017,10,16,19,58,3.20
2017,10,16,19,59,3.20
2017,10,16,20,00,3.20
2017,10,16,20,01,1.60
2017,10,16,20,12,3.20
2017,10,16,20,13,4.80
2017,10,16,20,14,3.20
2017,10,16,20,18,1.60
2017,10,16,20,19,3.20
2017,10,16,20,21,3.20
2017,10,16,20,22,3.20
2017,10,16,20,23,4.80
2017,10,16,20,24,1.60
2017,10,16,20,25,3.20
2017,10,16,20,26,1.60
2017,10,16,20,27,3.20
2017,10,16,20,28,1.60
2017,10,16,20,30,4.80
2017,10,16,20,31,1.60
2017,10,16,20,33,3.20
2017,10,16,20,34,3.20
2017,10,16,20,35,3.20
2017,10,16,20,36,3.20
2017,10,16,20,40,3.20
2017,10,16,20,41,3.20
2017,10,16,20,42,3.20
2017,10,16,20,43,6.40
2017,10,16,20,44,6.40
2017,10,16,20,45,3.20
2017,10,16,20,47,6.40
2017,10,16,20,48,4.80
2017,10,16,20,49,3.20
2017,10,16,20,50,3.20
2017,10,16,20,51,3.20
2017,10,16,20,52,4.80
2017,10,16,20,53,3.20
2017,10,16,20,54,4.80
2017,10,16,20,55,6.40
2017,10,16,20,56,8.10
2017,10,16,20,57,4.80
2017,10,16,20,58,8.10
2017,10,16,20,59,6.40
2017,10,16,21,00,8.10
2017,10,16,21,01,9.60
2017,10,16,21,02,11.30
2017,10,16,21,03,8.10
2017,10,16,21,04,14.50
2017,10,16,21,05,9.60
2017,10,16,21,06,8.10
2017,10,16,21,07,8.10
2017,10,16,21,08,11.30
2017,10,16,21,09,8.10
2017,10,16,21,10,6.40
2017,10,16,21,11,4.80
2017,10,16,21,12,4.80
2017,10,16,21,14,4.80
2017,10,16,21,15,6.40
2017,10,16,21,16,6.40
2017,10,16,21,17,9.60
2017,10,16,21,18,6.40
2017,10,16,21,19,8.10
2017,10,16,21,20,6.40
2017,10,16,21,21,4.80
2017,10,16,21,22,4.80
2017,10,16,21,23,8.10
2017,10,16,21,24,6.40
2017,10,16,21,25,11.30
2017,10,16,21,26,11.30
2017,10,16,21,27,9.60
2017,10,16,21,28,4.80
2017,10,16,21,29,11.30
2017,10,16,21,30,16.10
2017,10,16,21,31,6.40
2017,10,16,21,32,3.20
2017,10,16,21,33,6.40
2017,10,16,21,34,11.30
2017,10,16,21,35,8.10
2017,10,16,21,36,8.10
2017,10,16,21,37,8.10
2017,10,16,21,38,9.60
2017,10,16,21,39,6.40
2017,10,16,21,40,3.20
2017,10,16,21,42,6.40
2017,10,16,21,43,8.10
2017,10,16,21,44,4.80
2017,10,16,21,45,8.10
2017,10,16,21,46,6.40
2017,10,16,21,47,9.60